Regional Weather Roundup
Issued by NWS

Home | Current Version | Previous Version | Graphics & Text | Print | Product List | Glossary On
Versions: 1 2 3 4 5 6 7 8 9 10 11 12 13 14 15 16 17 18 19 20 21 22 23 24 25 26 27 28 29 30 31 32 33 34 35 36 37 38 39 40 41 42 43 44 45 46 47 48 49 50
000
ASUS45 KSLC 221210
RWRUT

UTAH REGIONAL WEATHER ROUNDUP
NATIONAL WEATHER SERVICE SALT LAKE CITY UT
600 AM MDT FRI AUG 22 2014

UTZ001>011-023>025-221300-

NORTHERN UTAH

CITY           SKY/WX    TMP DP  RH WIND       PRES   REMARKS
HILL AFB       CLOUDY    64  48  55 SE16      30.02S
LOGAN          LGT RAIN  57  54  89 W7        30.04F
OGDEN          CLOUDY    65  48  54 SE5       29.99F
PROVO AIRPORT  PTCLDY    59  46  63 SE10      30.05S
SALT LAKE CITY MOCLDY    68  49  50 SE5       29.98R
VERNAL         PTCLDY    56  48  74 CALM      30.13S
WENDOVER       PTCLDY    64  48  55 CALM      29.98S
HEBER CITY     MOCLDY    52  46  82 CALM      30.11S
WEST JORDAN    CLOUDY    70  52  52 S10       30.01S

$$

UTZ012>022-026-027-221300-

SOUTHERN UTAH

CITY           SKY/WX    TMP DP  RH WIND       PRES   REMARKS
BRYCE CANYON   CLOUDY    46  44  93 W5        30.27F
CEDAR CITY     CLEAR     54  49  83 E6        30.14F
MILFORD        CLEAR     58  50  75 S15       30.10S
MOAB/CYNLANDS  MOCLDY    64  52  64 E3        30.05R
PRICE          CLEAR     55  44  66 N6        30.13S
ST GEORGE      MOSUNNY   66  52  59 SE6       30.04F
KANAB          CLOUDY    59  55  88 CALM      30.17F

$$

REGIONAL REPORTS     COLORADO/ARIZONA

CITY           SKY/WX    TMP DP  RH WIND       PRES   REMARKS
CRAIG, CO      CLOUDY    56  49  77 N9        30.18F
GRAND JUNCTION CLOUDY    67  48  50 SE21G28   30.10R
RIFLE          CLOUDY    59  52  77 E7        30.19R
MONTROSE       LGT RAIN  59  54  83 E6        30.22F
CORTEZ         CLOUDY    57  54  89 W3        30.21R
PAGE, AZ       PTCLDY    64  56  75 CALM      30.10S
GRAND CANYON     N/A    N/A N/A N/A MISG        N/A
KINGMAN        CLEAR     59  55  87 SE6       30.07R
FLAGSTAFF      CLOUDY    52  50  93 CALM      30.25F

$$

REGIONAL REPORTS    NEVADA/IDAHO/WYOMING

CITY           SKY/WX    TMP DP  RH WIND       PRES   REMARKS
LAS VEGAS, NV  PTCLDY    71  51  49 S8        29.93S
ELY            CLEAR     56  45  66 S16       30.14S
ELKO           CLOUDY    56  46  69 CALM      30.01S
POCATELLO, ID  CLOUDY    57  52  83 E10       30.02F
BURLEY         RAIN      57  55  93 NE5       30.03R FOG
EVANSTON, WY   MOCLDY    49  48  97 N7        30.19S
ROCK SPRINGS   PTCLDY    49  41  74 SW5       30.19S

$$



USA.gov is the U.S. government's official web portal to all federal, state and local government web resources and services.